TimeCDT,TemperatureF,Dew PointF,Humidity,Sea Level PressureIn,VisibilityMPH,Wind Direction,Wind SpeedMPH,Gust SpeedMPH,PrecipitationIn,Events,Conditions,WindDirDegrees,DateUTC
12:15 AM,66.2,53.6,64,29.69,10.0,SE,11.5,-,N/A,,Clear,130,2013-10-11 05:15:00
12:35 AM,66.2,53.6,64,29.69,10.0,SE,12.7,-,N/A,,Clear,130,2013-10-11 05:35:00
12:55 AM,66.2,53.6,64,29.69,10.0,SE,13.8,25.3,N/A,,Clear,140,2013-10-11 05:55:00
1:15 AM,66.2,53.6,64,29.69,10.0,SSE,12.7,21.9,N/A,,Clear,150,2013-10-11 06:15:00
1:35 AM,66.2,53.6,64,29.70,10.0,SE,12.7,18.4,N/A,,Clear,140,2013-10-11 06:35:00
1:55 AM,66.2,53.6,64,29.69,10.0,SE,15.0,-,N/A,,Clear,140,2013-10-11 06:55:00
2:15 AM,64.4,53.6,68,29.69,10.0,SE,16.1,21.9,N/A,,Clear,140,2013-10-11 07:15:00
2:35 AM,64.4,53.6,68,29.69,10.0,SE,15.0,20.7,N/A,,Clear,140,2013-10-11 07:35:00
2:55 AM,64.4,53.6,68,29.68,10.0,SSE,12.7,-,N/A,,Clear,150,2013-10-11 07:55:00
3:15 AM,64.4,53.6,68,29.67,10.0,SE,12.7,-,N/A,,Clear,140,2013-10-11 08:15:00
3:35 AM,64.4,53.6,68,29.66,10.0,SSE,13.8,20.7,N/A,,Clear,150,2013-10-11 08:35:00
3:55 AM,64.4,53.6,68,29.65,10.0,SE,15.0,18.4,N/A,,Clear,140,2013-10-11 08:55:00
4:15 AM,62.6,53.6,72,29.63,10.0,SE,15.0,19.6,N/A,,Clear,140,2013-10-11 09:15:00
4:35 AM,62.6,53.6,72,29.61,10.0,SE,16.1,21.9,N/A,,Clear,130,2013-10-11 09:35:00
4:55 AM,62.6,53.6,72,29.60,10.0,SE,17.3,21.9,N/A,,Clear,130,2013-10-11 09:55:00
5:15 AM,62.6,53.6,72,29.59,10.0,SE,18.4,27.6,N/A,,Clear,130,2013-10-11 10:15:00
5:35 AM,62.6,53.6,72,29.57,10.0,SE,18.4,28.8,N/A,,Clear,130,2013-10-11 10:35:00
5:55 AM,62.6,55.4,77,29.56,10.0,SE,16.1,25.3,N/A,,Scattered Clouds,130,2013-10-11 10:55:00
6:15 AM,62.6,53.6,72,29.54,10.0,SE,18.4,26.5,N/A,,Mostly Cloudy,130,2013-10-11 11:15:00
6:35 AM,62.6,53.6,72,29.56,10.0,SE,26.5,39.1,N/A,,Mostly Cloudy,140,2013-10-11 11:35:00
6:55 AM,60.8,55.4,82,29.53,10.0,SE,19.6,29.9,N/A,,Scattered Clouds,130,2013-10-11 11:55:00
7:15 AM,62.6,55.4,77,29.56,10.0,SSE,19.6,29.9,N/A,,Clear,150,2013-10-11 12:15:00
7:35 AM,60.8,55.4,82,29.57,10.0,SSE,18.4,26.5,N/A,,Scattered Clouds,150,2013-10-11 12:35:00
7:55 AM,60.8,55.4,82,29.55,10.0,SE,21.9,29.9,N/A,,Mostly Cloudy,140,2013-10-11 12:55:00
8:15 AM,60.8,55.4,82,29.56,10.0,SSE,24.2,34.5,N/A,,Scattered Clouds,150,2013-10-11 13:15:00
8:35 AM,62.6,55.4,77,29.55,10.0,SE,20.7,27.6,N/A,,Mostly Cloudy,140,2013-10-11 13:35:00
8:55 AM,62.6,55.4,77,29.55,10.0,SSE,23.0,28.8,N/A,,Scattered Clouds,150,2013-10-11 13:55:00
9:15 AM,62.6,53.6,72,29.55,10.0,SSE,25.3,32.2,N/A,,Mostly Cloudy,150,2013-10-11 14:15:00
9:35 AM,64.4,55.4,73,29.54,10.0,SSE,20.7,31.1,N/A,,Mostly Cloudy,150,2013-10-11 14:35:00
9:55 AM,64.4,55.4,73,29.53,10.0,SSE,25.3,31.1,N/A,,Scattered Clouds,160,2013-10-11 14:55:00
10:15 AM,66.2,55.4,68,29.52,10.0,SSE,29.9,35.7,N/A,,Scattered Clouds,160,2013-10-11 15:15:00
10:35 AM,66.2,55.4,68,29.52,10.0,South,23.0,35.7,N/A,,Scattered Clouds,170,2013-10-11 15:35:00
10:55 AM,66.2,55.4,68,29.51,10.0,South,24.2,31.1,N/A,,Scattered Clouds,170,2013-10-11 15:55:00
11:15 AM,68.0,53.6,60,29.51,10.0,South,23.0,38.0,N/A,,Clear,170,2013-10-11 16:15:00
11:35 AM,69.8,53.6,56,29.50,10.0,SSE,29.9,38.0,N/A,,Partly Cloudy,160,2013-10-11 16:35:00
11:55 AM,71.6,51.8,50,29.50,10.0,South,31.1,38.0,N/A,,Partly Cloudy,170,2013-10-11 16:55:00
12:15 PM,71.6,51.8,50,29.50,10.0,SSE,27.6,39.1,N/A,,Partly Cloudy,160,2013-10-11 17:15:00
12:35 PM,71.6,51.8,50,29.49,10.0,South,25.3,33.4,N/A,,Scattered Clouds,190,2013-10-11 17:35:00
12:55 PM,73.4,50.0,44,29.48,10.0,South,26.5,35.7,N/A,,Partly Cloudy,170,2013-10-11 17:55:00
1:15 PM,73.4,48.2,41,29.47,10.0,South,26.5,36.8,N/A,,Partly Cloudy,190,2013-10-11 18:15:00
1:35 PM,73.4,46.4,38,29.47,10.0,South,24.2,36.8,N/A,,Clear,180,2013-10-11 18:35:00
1:55 PM,75.2,44.6,34,29.48,10.0,SSW,31.1,38.0,N/A,,Clear,210,2013-10-11 18:55:00
2:15 PM,73.4,42.8,33,29.48,10.0,SSW,26.5,43.7,N/A,,Clear,200,2013-10-11 19:15:00
2:35 PM,73.4,44.6,36,29.50,10.0,SSW,26.5,36.8,N/A,,Clear,200,2013-10-11 19:35:00
2:55 PM,73.4,46.4,38,29.51,10.0,SSW,25.3,33.4,N/A,,Partly Cloudy,210,2013-10-11 19:55:00
3:15 PM,71.6,46.4,41,29.52,10.0,SSW,23.0,33.4,N/A,,Mostly Cloudy,210,2013-10-11 20:15:00
3:35 PM,71.6,46.4,41,29.54,10.0,SW,20.7,36.8,N/A,,Mostly Cloudy,230,2013-10-11 20:35:00
3:55 PM,-9999,-9999,N/A,29.54,10.0,SSW,26.5,35.7,N/A,,Mostly Cloudy,210,2013-10-11 20:55:00
4:15 PM,71.6,46.4,41,29.56,10.0,SW,29.9,33.4,N/A,,Scattered Clouds,220,2013-10-11 21:15:00
4:35 PM,68.0,46.4,46,29.58,10.0,SW,24.2,29.9,N/A,,Mostly Cloudy,230,2013-10-11 21:35:00
4:55 PM,64.4,46.4,52,29.60,10.0,WSW,26.5,33.4,N/A,,Overcast,240,2013-10-11 21:55:00
5:15 PM,64.4,46.4,52,29.62,10.0,WSW,23.0,29.9,N/A,,Overcast,250,2013-10-11 22:15:00
5:35 PM,64.4,46.4,52,29.65,10.0,WSW,20.7,33.4,N/A,,Mostly Cloudy,240,2013-10-11 22:35:00
5:55 PM,60.8,44.6,55,29.67,10.0,West,24.2,32.2,N/A,,Partly Cloudy,260,2013-10-11 22:55:00
6:15 PM,59.0,44.6,59,29.70,10.0,WSW,25.3,34.5,N/A,,Mostly Cloudy,250,2013-10-11 23:15:00
6:35 PM,57.2,42.8,59,29.72,10.0,WSW,25.3,31.1,N/A,,Overcast,250,2013-10-11 23:35:00
6:55 PM,-9999,-9999,N/A,29.73,10.0,West,20.7,32.2,N/A,,Overcast,270,2013-10-11 23:55:00
7:15 PM,55.4,42.8,63,29.75,10.0,West,16.1,25.3,N/A,,Overcast,260,2013-10-12 00:15:00
7:35 PM,55.4,42.8,63,29.76,10.0,West,18.4,24.2,N/A,,Overcast,270,2013-10-12 00:35:00
7:55 PM,53.6,39.2,58,29.77,10.0,West,12.7,21.9,N/A,,Mostly Cloudy,260,2013-10-12 00:55:00
8:15 PM,53.6,41.0,62,29.79,10.0,West,10.4,-,N/A,,Partly Cloudy,260,2013-10-12 01:15:00
8:35 PM,53.6,39.2,58,29.80,10.0,West,11.5,16.1,N/A,,Partly Cloudy,260,2013-10-12 01:35:00
8:55 PM,53.6,39.2,58,29.80,10.0,West,12.7,-,N/A,,Clear,260,2013-10-12 01:55:00
9:15 PM,51.8,41.0,67,29.80,10.0,WSW,12.7,-,N/A,,Clear,250,2013-10-12 02:15:00
9:35 PM,51.8,39.2,62,29.80,10.0,WSW,10.4,-,N/A,,Clear,250,2013-10-12 02:35:00
9:55 PM,51.8,41.0,67,29.81,10.0,WSW,12.7,-,N/A,,Clear,240,2013-10-12 02:55:00
10:15 PM,51.8,42.8,71,29.81,10.0,WSW,12.7,-,N/A,,Clear,240,2013-10-12 03:15:00
10:35 PM,53.6,39.2,58,29.81,10.0,WSW,11.5,-,N/A,,Clear,250,2013-10-12 03:35:00
10:55 PM,51.8,39.2,62,29.82,10.0,WSW,12.7,-,N/A,,Clear,250,2013-10-12 03:55:00
11:15 PM,51.8,39.2,62,29.83,10.0,WSW,12.7,18.4,N/A,,Clear,250,2013-10-12 04:15:00
11:35 PM,53.6,39.2,58,29.83,10.0,West,15.0,18.4,N/A,,Clear,260,2013-10-12 04:35:00
11:55 PM,51.8,39.2,62,29.84,10.0,WSW,13.8,19.6,N/A,,Clear,250,2013-10-12 04:55:00